This is the latest recevied weather packets stored in our database for station/object PA3FNT-10. If no packets are shown the sender has not sent any weather packets the latest 1 day(s).
| Time | Temp. | Humidity | Pressure | Rain* | Wind** | Luminosity | Snow |
|---|---|---|---|---|---|---|---|
| 1777740327 | 22.78° C | 43% | 1015.1 hPa | - | - | - | - |
| 1777740285 | 22.78° C | 43% | 1015.1 hPa | - | - | - | - |
| 1777739385 | 22.78° C | 43% | 1015.3 hPa | - | - | - | - |
| 1777738485 | 23.33° C | 44% | 1015.4 hPa | - | - | - | - |
| 1777737585 | 23.89° C | 45% | 1015.4 hPa | - | - | - | - |
| 1777736685 | 24.44° C | 45% | 1015.4 hPa | - | - | - | - |
| 1777735785 | 25° C | 43% | 1015.6 hPa | - | - | - | - |
| 1777734885 | 25° C | 43% | 1015.7 hPa | - | - | - | - |
| 1777733985 | 25° C | 43% | 1015.8 hPa | - | - | - | - |
| 1777733117 | 25.56° C | 42% | 1016 hPa | - | - | - | - |
| 1777733085 | 25.56° C | 42% | 1016 hPa | - | - | - | - |
| 1777732185 | 23.89° C | 43% | 1016.2 hPa | - | - | - | - |
| 1777731285 | 24.44° C | 43% | 1016.2 hPa | - | - | - | - |
| 1777730385 | 25° C | 42% | 1016.4 hPa | - | - | - | - |
| 1777729537 | 26.11° C | 41% | 1016.3 hPa | - | - | - | - |
| 1777729485 | 26.11° C | 41% | 1016.3 hPa | - | - | - | - |
| 1777728584 | 26.11° C | 41% | 1016.6 hPa | - | - | - | - |
| 1777727684 | 26.11° C | 40% | 1016.8 hPa | - | - | - | - |
| 1777726784 | 26.11° C | 39% | 1016.9 hPa | - | - | - | - |
| 1777725884 | 26.11° C | 40% | 1016.8 hPa | - | - | - | - |
| 1777724984 | 25.56° C | 39% | 1017 hPa | - | - | - | - |
| 1777724084 | 26.67° C | 39% | 1017 hPa | - | - | - | - |
| 1777723184 | 25.56° C | 40% | 1017.1 hPa | - | - | - | - |
| 1777722283 | 25.56° C | 39% | 1017.3 hPa | - | - | - | - |
| 1777721383 | 23.89° C | 40% | 1017.3 hPa | - | - | - | - |
* Rain since midnight (hover to see other rain measurements)
** Current wind speed in m/s (hover to see current wind gust speed)